User: anonymous   Login
Location: Morehead State University
(38.1872°N, 83.4339°W)
Time: 22:15:54
(UTC-04:00)
Language:

Okean 2 - Orbit

View from above orbital plane
View from above orbital plane
View from above satellite
View from above satellite

Ground track
Ground track

The orbit data is extracted from the following two-line orbital elements,

1 20510U 90018A   14295.09353334  .00004043  00000-0  35398-3 0  8651
2 20510 082.5203 020.8357 0013208 018.4863 056.6117 14.96418608336352
Epoch (UTC): 22 October 2014 02:14:41
Eccentricity: 0.0013208
inclination: 82.5203°
perigee height: 569 km
apogee height: 587 km
right ascension of ascending node: 20.8357°
argument of perigee: 18.4863°
revolutions per day: 14.96418608
mean anomaly at epoch: 56.6117°
orbit number at epoch: 33635

The dashed part of the orbit path shows where the satellite is in the earth's shadow,  

DLR